contact:dominique.lefevre@mio.osupytheas.fr, maurice.libes@osupytheas.fr, didier.mallarino@osupytheas.fr
Project:EMSO http://www.emso-fr.org/EMSO-France
Depth: 2436.0 m
Title:EMSO Ligure Ouest : Data MII capteur MICROCAT
DateTime_Computer,Latitude,Longitude,Temperature,Conductivity,Pressure,DateTime_Instrument
DateTime_Computer,Latitude,Longitude,degC,S m-1,dbar,DateTime_Instrument
2017-12-08T00:00:34Z,42.805,6.029,13.2939,4.59961,2472.01,2017-12-08T02:02:04Z
2017-12-08T00:03:37Z,42.805,6.029,13.2935,4.59955,2472.032,2017-12-08T02:05:06Z
2017-12-08T00:06:40Z,42.805,6.029,13.2939,4.59954,2472.024,2017-12-08T02:08:09Z
2017-12-08T00:09:43Z,42.805,6.029,13.2936,4.59956,2472.032,2017-12-08T02:11:12Z
2017-12-08T00:12:46Z,42.805,6.029,13.2939,4.59955,2472.002,2017-12-08T02:14:15Z
2017-12-08T00:15:49Z,42.805,6.029,13.2936,4.59954,2472.002,2017-12-08T02:17:18Z
2017-12-08T00:18:51Z,42.805,6.029,13.2935,4.59956,2472.024,2017-12-08T02:20:21Z
2017-12-08T00:21:54Z,42.805,6.029,13.2933,4.59953,2472.024,2017-12-08T02:23:24Z
2017-12-08T00:24:57Z,42.805,6.029,13.2939,4.59955,2472.01,2017-12-08T02:26:27Z
2017-12-08T00:28:00Z,42.805,6.029,13.2939,4.59958,2472.002,2017-12-08T02:29:29Z
2017-12-08T00:31:03Z,42.805,6.029,13.2935,4.59956,2472.024,2017-12-08T02:32:32Z
2017-12-08T00:34:06Z,42.805,6.029,13.2933,4.59955,2472.024,2017-12-08T02:35:35Z
2017-12-08T00:37:09Z,42.805,6.029,13.2938,4.59954,2472.002,2017-12-08T02:38:38Z
2017-12-08T00:40:12Z,42.805,6.029,13.2935,4.59955,2472.01,2017-12-08T02:41:41Z
2017-12-08T00:43:15Z,42.805,6.029,13.2934,4.59956,2472.024,2017-12-08T02:44:44Z
2017-12-08T00:46:17Z,42.805,6.029,13.2939,4.59955,2472.01,2017-12-08T02:47:47Z
2017-12-08T00:49:20Z,42.805,6.029,13.2937,4.59957,2472.01,2017-12-08T02:50:50Z
2017-12-08T00:52:23Z,42.805,6.029,13.2939,4.59954,2472.024,2017-12-08T02:53:53Z
2017-12-08T00:55:26Z,42.805,6.029,13.2934,4.59956,2472.032,2017-12-08T02:56:55Z
2017-12-08T00:58:29Z,42.805,6.029,13.2936,4.59958,2472.024,2017-12-08T02:59:58Z
2017-12-08T01:01:32Z,42.805,6.029,13.2939,4.59955,2472.01,2017-12-08T03:03:01Z
2017-12-08T01:04:35Z,42.805,6.029,13.2939,4.59955,2472.01,2017-12-08T03:06:04Z
2017-12-08T01:07:38Z,42.805,6.029,13.2936,4.59955,2472.047,2017-12-08T03:09:07Z
2017-12-08T01:10:41Z,42.805,6.029,13.2939,4.59955,2471.987,2017-12-08T03:12:10Z
2017-12-08T01:13:43Z,42.805,6.029,13.2933,4.59954,2471.987,2017-12-08T03:15:13Z
2017-12-08T01:16:46Z,42.805,6.029,13.2937,4.59953,2471.964,2017-12-08T03:18:16Z
2017-12-08T01:19:49Z,42.805,6.029,13.2935,4.59954,2471.987,2017-12-08T03:21:19Z
2017-12-08T01:22:52Z,42.805,6.029,13.2933,4.59958,2472.002,2017-12-08T03:24:21Z
2017-12-08T01:25:55Z,42.805,6.029,13.2933,4.59956,2472.024,2017-12-08T03:27:24Z
2017-12-08T01:28:58Z,42.805,6.029,13.2939,4.59956,2471.979,2017-12-08T03:30:27Z
2017-12-08T01:32:01Z,42.805,6.029,13.2939,4.59953,2471.979,2017-12-08T03:33:30Z
2017-12-08T01:35:04Z,42.805,6.029,13.2935,4.59955,2472.024,2017-12-08T03:36:33Z
2017-12-08T01:38:07Z,42.805,6.029,13.2939,4.59954,2471.979,2017-12-08T03:39:36Z
2017-12-08T01:41:09Z,42.805,6.029,13.2935,4.59956,2472.01,2017-12-08T03:42:39Z
2017-12-08T01:44:12Z,42.805,6.029,13.2937,4.59956,2472.002,2017-12-08T03:45:42Z
2017-12-08T01:47:15Z,42.805,6.029,13.2935,4.59957,2471.964,2017-12-08T03:48:45Z
2017-12-08T01:50:18Z,42.805,6.029,13.2933,4.59958,2471.964,2017-12-08T03:51:47Z
2017-12-08T01:53:21Z,42.805,6.029,13.2935,4.59957,2471.942,2017-12-08T03:54:50Z
2017-12-08T01:56:24Z,42.805,6.029,13.2935,4.59955,2471.979,2017-12-08T03:57:53Z
2017-12-08T01:59:27Z,42.805,6.029,13.2935,4.59957,2471.942,2017-12-08T04:00:56Z
2017-12-08T02:02:30Z,42.805,6.029,13.2935,4.59955,2471.964,2017-12-08T04:03:59Z
2017-12-08T02:05:33Z,42.805,6.029,13.2935,4.59956,2472.002,2017-12-08T04:07:02Z
2017-12-08T02:08:35Z,42.805,6.029,13.2943,4.59962,2472.024,2017-12-08T04:10:05Z
2017-12-08T02:11:38Z,42.805,6.029,13.2936,4.59957,2471.979,2017-12-08T04:13:08Z
2017-12-08T02:14:41Z,42.805,6.029,13.2936,4.59960,2471.964,2017-12-08T04:16:10Z
2017-12-08T02:17:44Z,42.805,6.029,13.2940,4.59958,2471.979,2017-12-08T04:19:13Z
2017-12-08T02:20:47Z,42.805,6.029,13.2939,4.59958,2471.964,2017-12-08T04:22:16Z
2017-12-08T02:23:50Z,42.805,6.029,13.2936,4.59956,2471.964,2017-12-08T04:25:19Z
2017-12-08T02:26:53Z,42.805,6.029,13.2936,4.59958,2471.964,2017-12-08T04:28:22Z
2017-12-08T02:29:56Z,42.805,6.029,13.2938,4.59958,2471.964,2017-12-08T04:31:25Z
2017-12-08T02:32:59Z,42.805,6.029,13.2935,4.59956,2471.964,2017-12-08T04:34:28Z
2017-12-08T02:36:01Z,42.805,6.029,13.2935,4.59956,2471.942,2017-12-08T04:37:31Z
2017-12-08T02:39:04Z,42.805,6.029,13.2939,4.59957,2471.979,2017-12-08T04:40:34Z
2017-12-08T02:42:07Z,42.805,6.029,13.2938,4.59956,2471.957,2017-12-08T04:43:36Z
2017-12-08T02:45:10Z,42.805,6.029,13.2932,4.59955,2471.942,2017-12-08T04:46:39Z
2017-12-08T02:48:13Z,42.805,6.029,13.2935,4.59958,2471.987,2017-12-08T04:49:42Z
2017-12-08T02:51:16Z,42.805,6.029,13.2942,4.59961,2471.964,2017-12-08T04:52:45Z
2017-12-08T02:54:19Z,42.805,6.029,13.2936,4.59959,2471.942,2017-12-08T04:55:48Z
2017-12-08T02:57:22Z,42.805,6.029,13.2940,4.59960,2471.964,2017-12-08T04:58:51Z
2017-12-08T03:00:24Z,42.805,6.029,13.2942,4.59961,2471.934,2017-12-08T05:01:54Z
2017-12-08T03:03:27Z,42.805,6.029,13.2933,4.59958,2471.957,2017-12-08T05:04:57Z
2017-12-08T03:06:30Z,42.805,6.029,13.2937,4.59959,2471.934,2017-12-08T05:08:00Z
2017-12-08T03:09:33Z,42.805,6.029,13.2935,4.59959,2471.919,2017-12-08T05:11:02Z
2017-12-08T03:12:36Z,42.805,6.029,13.2948,4.59972,2471.934,2017-12-08T05:14:05Z
2017-12-08T03:15:39Z,42.805,6.029,13.2949,4.59967,2471.934,2017-12-08T05:17:08Z
2017-12-08T03:18:42Z,42.805,6.029,13.2952,4.59981,2471.919,2017-12-08T05:20:11Z
2017-12-08T03:21:45Z,42.805,6.029,13.2940,4.59972,2471.942,2017-12-08T05:23:14Z
2017-12-08T03:24:48Z,42.805,6.029,13.2958,4.59988,2471.957,2017-12-08T05:26:17Z
2017-12-08T03:27:50Z,42.805,6.029,13.2970,4.60019,2471.957,2017-12-08T05:29:20Z
2017-12-08T03:30:53Z,42.805,6.029,13.2969,4.60015,2471.957,2017-12-08T05:32:23Z
2017-12-08T03:33:56Z,42.805,6.029,13.2970,4.60029,2471.957,2017-12-08T05:35:26Z
2017-12-08T03:36:59Z,42.805,6.029,13.2950,4.60032,2471.957,2017-12-08T05:38:28Z
2017-12-08T03:40:02Z,42.805,6.029,13.2966,4.60034,2471.897,2017-12-08T05:41:31Z
2017-12-08T03:43:05Z,42.805,6.029,13.2958,4.59994,2471.897,2017-12-08T05:44:34Z
2017-12-08T03:46:08Z,42.805,6.029,13.2950,4.60014,2471.912,2017-12-08T05:47:37Z
2017-12-08T03:49:11Z,42.805,6.029,13.2951,4.59994,2471.942,2017-12-08T05:50:40Z
2017-12-08T03:52:14Z,42.805,6.029,13.2958,4.60012,2471.897,2017-12-08T05:53:43Z
2017-12-08T03:55:16Z,42.805,6.029,13.2968,4.60011,2471.912,2017-12-08T05:56:46Z
2017-12-08T03:58:19Z,42.805,6.029,13.2957,4.60016,2471.934,2017-12-08T05:59:49Z
2017-12-08T04:01:22Z,42.805,6.029,13.2969,4.60031,2471.934,2017-12-08T06:02:52Z
2017-12-08T04:04:25Z,42.805,6.029,13.2962,4.60018,2471.912,2017-12-08T06:05:54Z
2017-12-08T04:07:28Z,42.805,6.029,13.2964,4.59993,2471.912,2017-12-08T06:08:57Z
2017-12-08T04:10:31Z,42.805,6.029,13.2958,4.60012,2471.934,2017-12-08T06:12:00Z
2017-12-08T04:13:34Z,42.805,6.029,13.2958,4.60021,2471.912,2017-12-08T06:15:03Z
2017-12-08T04:16:37Z,42.805,6.029,13.2958,4.59993,2471.874,2017-12-08T06:18:06Z
2017-12-08T04:19:40Z,42.805,6.029,13.2959,4.60035,2471.919,2017-12-08T06:21:09Z
2017-12-08T04:22:42Z,42.805,6.029,13.2957,4.60011,2471.897,2017-12-08T06:24:12Z
2017-12-08T04:25:45Z,42.805,6.029,13.2957,4.60019,2471.919,2017-12-08T06:27:15Z
2017-12-08T04:28:48Z,42.805,6.029,13.2963,4.60029,2471.912,2017-12-08T06:30:18Z
2017-12-08T04:31:51Z,42.805,6.029,13.2960,4.60006,2471.934,2017-12-08T06:33:20Z
2017-12-08T04:34:54Z,42.805,6.029,13.2961,4.60004,2471.897,2017-12-08T06:36:23Z
2017-12-08T04:37:57Z,42.805,6.029,13.2968,4.60009,2471.897,2017-12-08T06:39:26Z
2017-12-08T04:41:00Z,42.805,6.029,13.2958,4.60032,2471.897,2017-12-08T06:42:29Z
2017-12-08T04:44:03Z,42.805,6.029,13.2964,4.59998,2471.934,2017-12-08T06:45:32Z
2017-12-08T04:47:06Z,42.805,6.029,13.2961,4.60005,2471.912,2017-12-08T06:48:35Z
2017-12-08T04:50:08Z,42.805,6.029,13.2958,4.60032,2471.897,2017-12-08T06:51:38Z
2017-12-08T04:53:11Z,42.805,6.029,13.2962,4.59987,2471.912,2017-12-08T06:54:41Z
2017-12-08T04:56:14Z,42.805,6.029,13.2969,4.60001,2471.934,2017-12-08T06:57:44Z
2017-12-08T04:59:17Z,42.805,6.029,13.2957,4.60063,2471.889,2017-12-08T07:00:46Z
2017-12-08T05:02:20Z,42.805,6.029,13.2962,4.59995,2471.957,2017-12-08T07:03:49Z
2017-12-08T05:05:23Z,42.805,6.029,13.2970,4.59997,2471.897,2017-12-08T07:06:52Z
2017-12-08T05:08:26Z,42.805,6.029,13.2969,4.59983,2471.912,2017-12-08T07:09:55Z
2017-12-08T05:11:29Z,42.805,6.029,13.2974,4.59990,2471.912,2017-12-08T07:12:58Z
2017-12-08T05:14:32Z,42.805,6.029,13.2982,4.60050,2471.912,2017-12-08T07:16:01Z
2017-12-08T05:17:34Z,42.805,6.029,13.2985,4.60035,2471.912,2017-12-08T07:19:04Z
2017-12-08T05:20:37Z,42.805,6.029,13.2990,4.60000,2471.897,2017-12-08T07:22:07Z
2017-12-08T05:23:40Z,42.805,6.029,13.2996,4.59991,2471.912,2017-12-08T07:25:09Z
2017-12-08T05:26:43Z,42.805,6.029,13.3001,4.59997,2471.912,2017-12-08T07:28:12Z
2017-12-08T05:29:46Z,42.805,6.029,13.2992,4.59998,2471.912,2017-12-08T07:31:15Z
2017-12-08T05:32:49Z,42.805,6.029,13.3019,4.60032,2471.919,2017-12-08T07:34:18Z
2017-12-08T05:35:52Z,42.805,6.029,13.3027,4.60018,2471.934,2017-12-08T07:37:21Z
2017-12-08T05:38:55Z,42.805,6.029,13.3037,4.60052,2471.927,2017-12-08T07:40:24Z
2017-12-08T05:41:57Z,42.805,6.029,13.3034,4.59994,2471.912,2017-12-08T07:43:27Z
2017-12-08T05:45:00Z,42.805,6.029,13.3004,4.59989,2471.934,2017-12-08T07:46:30Z
2017-12-08T05:48:03Z,42.805,6.029,13.2984,4.59979,2471.912,2017-12-08T07:49:33Z
2017-12-08T05:51:06Z,42.805,6.029,13.2993,4.59995,2471.934,2017-12-08T07:52:35Z
2017-12-08T05:54:09Z,42.805,6.029,13.2971,4.60043,2471.934,2017-12-08T07:55:38Z
2017-12-08T05:57:12Z,42.805,6.029,13.2994,4.60015,2471.934,2017-12-08T07:58:41Z
2017-12-08T06:00:15Z,42.805,6.029,13.3023,4.59995,2471.919,2017-12-08T08:01:44Z
2017-12-08T06:03:18Z,42.805,6.029,13.3019,4.59996,2471.912,2017-12-08T08:04:47Z
2017-12-08T06:06:21Z,42.805,6.029,13.3010,4.59995,2471.957,2017-12-08T08:07:50Z
2017-12-08T06:09:23Z,42.805,6.029,13.2993,4.59980,2471.942,2017-12-08T08:10:53Z
2017-12-08T06:12:26Z,42.805,6.029,13.2986,4.59989,2471.934,2017-12-08T08:13:56Z
2017-12-08T06:15:29Z,42.805,6.029,13.2970,4.59981,2471.957,2017-12-08T08:16:59Z
2017-12-08T06:18:32Z,42.805,6.029,13.3015,4.59989,2471.957,2017-12-08T08:20:01Z
2017-12-08T06:21:35Z,42.805,6.029,13.3004,4.60022,2471.942,2017-12-08T08:23:04Z
2017-12-08T06:24:38Z,42.805,6.029,13.3008,4.60007,2471.994,2017-12-08T08:26:07Z
2017-12-08T06:27:41Z,42.805,6.029,13.3019,4.59993,2471.957,2017-12-08T08:29:10Z
2017-12-08T06:30:44Z,42.805,6.029,13.2991,4.60001,2471.979,2017-12-08T08:32:13Z
2017-12-08T06:33:47Z,42.805,6.029,13.3010,4.59981,2471.957,2017-12-08T08:35:16Z
2017-12-08T06:36:49Z,42.805,6.029,13.2995,4.59984,2471.964,2017-12-08T08:38:19Z
2017-12-08T06:39:52Z,42.805,6.029,13.2995,4.59999,2471.979,2017-12-08T08:41:22Z
2017-12-08T06:42:55Z,42.805,6.029,13.3010,4.59992,2471.957,2017-12-08T08:44:25Z
2017-12-08T06:45:58Z,42.805,6.029,13.3023,4.59994,2471.979,2017-12-08T08:47:27Z
2017-12-08T06:49:01Z,42.805,6.029,13.3003,4.60003,2471.942,2017-12-08T08:50:30Z
2017-12-08T06:52:04Z,42.805,6.029,13.2976,4.60009,2472.002,2017-12-08T08:53:33Z
2017-12-08T06:55:07Z,42.805,6.029,13.2984,4.60008,2471.987,2017-12-08T08:56:36Z
2017-12-08T06:58:10Z,42.805,6.029,13.2988,4.59990,2471.942,2017-12-08T08:59:39Z
2017-12-08T07:01:13Z,42.805,6.029,13.2988,4.60008,2471.987,2017-12-08T09:02:42Z
2017-12-08T07:04:15Z,42.805,6.029,13.3014,4.59990,2472.002,2017-12-08T09:05:45Z
2017-12-08T07:07:18Z,42.805,6.029,13.2987,4.60028,2471.964,2017-12-08T09:08:48Z
2017-12-08T07:10:21Z,42.805,6.029,13.2989,4.59994,2472.002,2017-12-08T09:11:51Z
2017-12-08T07:13:24Z,42.805,6.029,13.2998,4.60018,2472.002,2017-12-08T09:14:53Z
2017-12-08T07:16:27Z,42.805,6.029,13.2988,4.59992,2472.002,2017-12-08T09:17:56Z
2017-12-08T07:19:30Z,42.805,6.029,13.2991,4.59995,2472.024,2017-12-08T09:20:59Z
2017-12-08T07:22:33Z,42.805,6.029,13.2981,4.60000,2472.039,2017-12-08T09:24:02Z
2017-12-08T07:25:36Z,42.805,6.029,13.2996,4.59999,2472.024,2017-12-08T09:27:05Z
2017-12-08T07:28:38Z,42.805,6.029,13.3004,4.60015,2472.047,2017-12-08T09:30:08Z
2017-12-08T07:31:41Z,42.805,6.029,13.2988,4.60013,2472.024,2017-12-08T09:33:11Z
2017-12-08T07:34:44Z,42.805,6.029,13.2993,4.60018,2472.047,2017-12-08T09:36:14Z
2017-12-08T07:37:47Z,42.805,6.029,13.3011,4.60003,2472.047,2017-12-08T09:39:17Z
2017-12-08T07:40:50Z,42.805,6.029,13.2995,4.60021,2472.024,2017-12-08T09:42:19Z
2017-12-08T07:43:53Z,42.805,6.029,13.3014,4.60020,2472.047,2017-12-08T09:45:22Z
2017-12-08T07:46:56Z,42.805,6.029,13.2943,4.60011,2472.002,2017-12-08T09:48:25Z
2017-12-08T07:49:59Z,42.805,6.029,13.3027,4.60018,2472.047,2017-12-08T09:51:28Z
2017-12-08T07:53:02Z,42.805,6.029,13.2951,4.60023,2472.069,2017-12-08T09:54:31Z
2017-12-08T07:56:05Z,42.805,6.029,13.2943,4.59991,2472.047,2017-12-08T09:57:34Z
2017-12-08T07:59:07Z,42.805,6.029,13.2947,4.59995,2472.047,2017-12-08T10:00:37Z
2017-12-08T08:02:10Z,42.805,6.029,13.2940,4.59990,2472.047,2017-12-08T10:03:40Z
2017-12-08T08:05:13Z,42.805,6.029,13.2935,4.60035,2472.092,2017-12-08T10:06:43Z
2017-12-08T08:08:16Z,42.805,6.029,13.2936,4.59984,2472.032,2017-12-08T10:09:45Z
2017-12-08T08:11:19Z,42.805,6.029,13.2935,4.59961,2472.069,2017-12-08T10:12:48Z
2017-12-08T08:14:22Z,42.805,6.029,13.2935,4.59961,2472.069,2017-12-08T10:15:51Z
2017-12-08T08:17:25Z,42.805,6.029,13.2933,4.59959,2472.069,2017-12-08T10:18:54Z
2017-12-08T08:20:28Z,42.805,6.029,13.2939,4.59958,2472.092,2017-12-08T10:21:57Z
2017-12-08T08:23:31Z,42.805,6.029,13.2939,4.59958,2472.092,2017-12-08T10:25:00Z
2017-12-08T08:26:33Z,42.805,6.029,13.2933,4.59958,2472.1,2017-12-08T10:28:03Z
2017-12-08T08:29:36Z,42.805,6.029,13.2938,4.59958,2472.055,2017-12-08T10:31:06Z
2017-12-08T08:32:39Z,42.805,6.029,13.2932,4.59960,2472.069,2017-12-08T10:34:09Z
2017-12-08T08:35:42Z,42.805,6.029,13.2935,4.59957,2472.115,2017-12-08T10:37:11Z
2017-12-08T08:38:45Z,42.805,6.029,13.2932,4.59956,2472.1,2017-12-08T10:40:14Z
2017-12-08T08:41:48Z,42.805,6.029,13.2935,4.59956,2472.1,2017-12-08T10:43:17Z
2017-12-08T08:44:51Z,42.805,6.029,13.2934,4.59958,2472.077,2017-12-08T10:46:20Z
2017-12-08T08:47:54Z,42.805,6.029,13.2934,4.59955,2472.077,2017-12-08T10:49:23Z
2017-12-08T08:50:57Z,42.805,6.029,13.2935,4.59956,2472.115,2017-12-08T10:52:26Z
2017-12-08T08:53:59Z,42.805,6.029,13.2936,4.59956,2472.137,2017-12-08T10:55:29Z
2017-12-08T08:57:02Z,42.805,6.029,13.2938,4.59958,2472.115,2017-12-08T10:58:32Z
2017-12-08T09:00:05Z,42.805,6.029,13.2935,4.59958,2472.115,2017-12-08T11:01:35Z
2017-12-08T09:03:08Z,42.805,6.029,13.2935,4.59958,2472.137,2017-12-08T11:04:37Z
2017-12-08T09:06:11Z,42.805,6.029,13.2939,4.59958,2472.115,2017-12-08T11:07:40Z
2017-12-08T09:09:14Z,42.805,6.029,13.2936,4.59959,2472.137,2017-12-08T11:10:43Z
2017-12-08T09:12:17Z,42.805,6.029,13.2936,4.59958,2472.145,2017-12-08T11:13:46Z
2017-12-08T09:15:20Z,42.805,6.029,13.2939,4.59958,2472.1,2017-12-08T11:16:49Z
2017-12-08T09:18:23Z,42.805,6.029,13.2939,4.59956,2472.129,2017-12-08T11:19:52Z
2017-12-08T09:21:26Z,42.805,6.029,13.2935,4.59959,2472.123,2017-12-08T11:22:55Z
2017-12-08T09:24:28Z,42.805,6.029,13.2939,4.59959,2472.16,2017-12-08T11:25:58Z
2017-12-08T09:27:31Z,42.805,6.029,13.2939,4.59958,2472.168,2017-12-08T11:29:01Z
2017-12-08T09:30:34Z,42.805,6.029,13.2937,4.59958,2472.115,2017-12-08T11:32:04Z
2017-12-08T09:33:37Z,42.805,6.029,13.2933,4.59958,2472.16,2017-12-08T11:35:06Z
2017-12-08T09:36:40Z,42.805,6.029,13.2932,4.59959,2472.137,2017-12-08T11:38:09Z
2017-12-08T09:39:43Z,42.805,6.029,13.2939,4.59961,2472.145,2017-12-08T11:41:12Z
2017-12-08T09:42:46Z,42.805,6.029,13.2940,4.59959,2472.137,2017-12-08T11:44:15Z
2017-12-08T09:45:49Z,42.805,6.029,13.2937,4.59959,2472.145,2017-12-08T11:47:18Z
2017-12-08T09:48:52Z,42.805,6.029,13.2935,4.59959,2472.168,2017-12-08T11:50:21Z
2017-12-08T09:51:54Z,42.805,6.029,13.2933,4.59958,2472.123,2017-12-08T11:53:24Z
2017-12-08T09:54:57Z,42.805,6.029,13.2937,4.59959,2472.16,2017-12-08T11:56:27Z
2017-12-08T09:58:00Z,42.805,6.029,13.2938,4.59961,2472.16,2017-12-08T11:59:30Z
2017-12-08T10:01:03Z,42.805,6.029,13.2935,4.59959,2472.145,2017-12-08T12:02:32Z
2017-12-08T10:04:06Z,42.805,6.029,13.2936,4.59959,2472.145,2017-12-08T12:05:35Z
2017-12-08T10:07:09Z,42.805,6.029,13.2938,4.59958,2472.145,2017-12-08T12:08:38Z
2017-12-08T10:10:12Z,42.805,6.029,13.2939,4.59958,2472.16,2017-12-08T12:11:41Z
2017-12-08T10:13:15Z,42.805,6.029,13.2938,4.59959,2472.16,2017-12-08T12:14:44Z
2017-12-08T10:16:18Z,42.805,6.029,13.2935,4.59958,2472.168,2017-12-08T12:17:47Z
2017-12-08T10:19:20Z,42.805,6.029,13.2933,4.59958,2472.123,2017-12-08T12:20:50Z
2017-12-08T10:22:23Z,42.805,6.029,13.2939,4.59958,2472.145,2017-12-08T12:23:53Z
2017-12-08T10:25:26Z,42.805,6.029,13.2937,4.59958,2472.16,2017-12-08T12:26:56Z
2017-12-08T10:28:29Z,42.805,6.029,13.2938,4.59958,2472.182,2017-12-08T12:29:58Z
2017-12-08T10:31:32Z,42.805,6.029,13.2933,4.59958,2472.182,2017-12-08T12:33:01Z
2017-12-08T10:34:35Z,42.805,6.029,13.2936,4.59958,2472.182,2017-12-08T12:36:04Z
2017-12-08T10:37:38Z,42.805,6.029,13.2933,4.59960,2472.137,2017-12-08T12:39:07Z
2017-12-08T10:40:41Z,42.805,6.029,13.2935,4.59959,2472.182,2017-12-08T12:42:10Z
2017-12-08T10:43:44Z,42.805,6.029,13.2934,4.59956,2472.137,2017-12-08T12:45:13Z
2017-12-08T10:46:46Z,42.805,6.029,13.2939,4.59958,2472.16,2017-12-08T12:48:16Z
2017-12-08T10:49:49Z,42.805,6.029,13.2937,4.59959,2472.123,2017-12-08T12:51:19Z
2017-12-08T10:52:52Z,42.805,6.029,13.2938,4.59958,2472.16,2017-12-08T12:54:22Z
2017-12-08T10:55:55Z,42.805,6.029,13.2940,4.59958,2472.168,2017-12-08T12:57:24Z
2017-12-08T10:58:58Z,42.805,6.029,13.2939,4.59959,2472.16,2017-12-08T13:00:27Z
2017-12-08T11:02:01Z,42.805,6.029,13.2939,4.59958,2472.137,2017-12-08T13:03:30Z
2017-12-08T11:05:04Z,42.805,6.029,13.2935,4.59959,2472.145,2017-12-08T13:06:33Z
2017-12-08T11:08:07Z,42.805,6.029,13.2938,4.59962,2472.168,2017-12-08T13:09:36Z
2017-12-08T11:11:10Z,42.805,6.029,13.2938,4.59959,2472.137,2017-12-08T13:12:39Z
2017-12-08T11:14:12Z,42.805,6.029,13.2940,4.59961,2472.16,2017-12-08T13:15:42Z
2017-12-08T11:17:15Z,42.805,6.029,13.2934,4.59958,2472.16,2017-12-08T13:18:45Z
2017-12-08T11:20:18Z,42.805,6.029,13.2935,4.59955,2472.137,2017-12-08T13:21:48Z
2017-12-08T11:23:21Z,42.805,6.029,13.2935,4.59958,2472.145,2017-12-08T13:24:51Z
2017-12-08T11:26:24Z,42.805,6.029,13.2940,4.59956,2472.16,2017-12-08T13:27:53Z
2017-12-08T11:29:27Z,42.805,6.029,13.2934,4.59956,2472.16,2017-12-08T13:30:56Z
2017-12-08T11:32:30Z,42.805,6.029,13.2937,4.59956,2472.16,2017-12-08T13:33:59Z
2017-12-08T11:35:33Z,42.805,6.029,13.2936,4.59956,2472.16,2017-12-08T13:37:02Z
2017-12-08T11:38:36Z,42.805,6.029,13.2936,4.59956,2472.137,2017-12-08T13:40:05Z
2017-12-08T11:41:38Z,42.805,6.029,13.2938,4.59957,2472.137,2017-12-08T13:43:08Z
2017-12-08T11:44:41Z,42.805,6.029,13.2935,4.59957,2472.137,2017-12-08T13:46:11Z
2017-12-08T11:47:44Z,42.805,6.029,13.2933,4.59958,2472.137,2017-12-08T13:49:14Z
2017-12-08T11:50:47Z,42.805,6.029,13.2940,4.59958,2472.16,2017-12-08T13:52:17Z
2017-12-08T11:53:50Z,42.805,6.029,13.2936,4.59958,2472.168,2017-12-08T13:55:19Z
2017-12-08T11:56:53Z,42.805,6.029,13.2940,4.59958,2472.137,2017-12-08T13:58:22Z
2017-12-08T11:59:56Z,42.805,6.029,13.2934,4.59956,2472.16,2017-12-08T14:01:25Z
2017-12-08T12:02:59Z,42.805,6.029,13.2937,4.59957,2472.16,2017-12-08T14:04:28Z
2017-12-08T12:06:02Z,42.805,6.029,13.2937,4.59955,2472.123,2017-12-08T14:07:31Z
2017-12-08T12:09:05Z,42.805,6.029,13.2935,4.59958,2472.137,2017-12-08T14:10:34Z
2017-12-08T12:12:07Z,42.805,6.029,13.2937,4.59956,2472.137,2017-12-08T14:13:37Z
2017-12-08T12:15:10Z,42.805,6.029,13.2936,4.59956,2472.123,2017-12-08T14:16:40Z
2017-12-08T12:18:13Z,42.805,6.029,13.2936,4.59956,2472.123,2017-12-08T14:19:43Z
2017-12-08T12:21:16Z,42.805,6.029,13.2933,4.59957,2472.123,2017-12-08T14:22:45Z
2017-12-08T12:24:19Z,42.805,6.029,13.2938,4.59955,2472.115,2017-12-08T14:25:48Z
2017-12-08T12:27:22Z,42.805,6.029,13.2938,4.59956,2472.137,2017-12-08T14:28:51Z
2017-12-08T12:30:25Z,42.805,6.029,13.2936,4.59955,2472.115,2017-12-08T14:31:54Z
2017-12-08T12:33:28Z,42.805,6.029,13.2938,4.59956,2472.1,2017-12-08T14:34:57Z
2017-12-08T12:36:31Z,42.805,6.029,13.2938,4.59956,2472.137,2017-12-08T14:38:00Z
2017-12-08T12:39:33Z,42.805,6.029,13.2936,4.59958,2472.123,2017-12-08T14:41:03Z
2017-12-08T12:42:36Z,42.805,6.029,13.2939,4.59956,2472.137,2017-12-08T14:44:06Z
2017-12-08T12:45:39Z,42.805,6.029,13.2937,4.59959,2472.137,2017-12-08T14:47:09Z
2017-12-08T12:48:42Z,42.805,6.029,13.2937,4.59955,2472.115,2017-12-08T14:50:11Z
2017-12-08T12:51:45Z,42.805,6.029,13.2940,4.59956,2472.115,2017-12-08T14:53:14Z
2017-12-08T12:54:48Z,42.805,6.029,13.2935,4.59956,2472.115,2017-12-08T14:56:17Z
2017-12-08T12:57:51Z,42.805,6.029,13.2939,4.59956,2472.115,2017-12-08T14:59:20Z
2017-12-08T13:00:54Z,42.805,6.029,13.2935,4.59957,2472.115,2017-12-08T15:02:23Z
2017-12-08T13:03:57Z,42.805,6.029,13.2938,4.59956,2472.115,2017-12-08T15:05:26Z
2017-12-08T13:06:59Z,42.805,6.029,13.2934,4.59956,2472.137,2017-12-08T15:08:29Z
2017-12-08T13:10:02Z,42.805,6.029,13.2943,4.59955,2472.1,2017-12-08T15:11:32Z
2017-12-08T13:13:05Z,42.805,6.029,13.2945,4.59954,2472.137,2017-12-08T15:14:35Z
2017-12-08T13:16:08Z,42.805,6.029,13.2939,4.59956,2472.115,2017-12-08T15:17:37Z
2017-12-08T13:19:11Z,42.805,6.029,13.2937,4.59955,2472.115,2017-12-08T15:20:40Z
2017-12-08T13:22:14Z,42.805,6.029,13.2940,4.59956,2472.115,2017-12-08T15:23:43Z
2017-12-08T13:25:17Z,42.805,6.029,13.2939,4.59956,2472.092,2017-12-08T15:26:46Z
2017-12-08T13:28:20Z,42.805,6.029,13.2937,4.59954,2472.077,2017-12-08T15:29:49Z
2017-12-08T13:31:23Z,42.805,6.029,13.2934,4.59954,2472.092,2017-12-08T15:32:52Z
2017-12-08T13:34:26Z,42.805,6.029,13.2935,4.59958,2472.115,2017-12-08T15:35:55Z
2017-12-08T13:37:28Z,42.805,6.029,13.2934,4.59954,2472.115,2017-12-08T15:38:58Z
2017-12-08T13:40:31Z,42.805,6.029,13.2941,4.59956,2472.115,2017-12-08T15:42:01Z
2017-12-08T13:43:34Z,42.805,6.029,13.2938,4.59961,2472.055,2017-12-08T15:45:04Z
2017-12-08T13:46:37Z,42.805,6.029,13.2940,4.59954,2472.115,2017-12-08T15:48:06Z
2017-12-08T13:49:40Z,42.805,6.029,13.2938,4.59955,2472.092,2017-12-08T15:51:09Z
2017-12-08T13:52:43Z,42.805,6.029,13.2942,4.59955,2472.069,2017-12-08T15:54:12Z
2017-12-08T13:55:46Z,42.805,6.029,13.2941,4.59956,2472.1,2017-12-08T15:57:15Z
2017-12-08T13:58:49Z,42.805,6.029,13.2938,4.59955,2472.115,2017-12-08T16:00:18Z
2017-12-08T14:01:52Z,42.805,6.029,13.2938,4.59955,2472.069,2017-12-08T16:03:21Z
2017-12-08T14:04:54Z,42.805,6.029,13.2939,4.59956,2472.069,2017-12-08T16:06:24Z
2017-12-08T14:07:57Z,42.805,6.029,13.2939,4.59958,2472.047,2017-12-08T16:09:27Z
2017-12-08T14:11:00Z,42.805,6.029,13.2940,4.59957,2472.077,2017-12-08T16:12:30Z
2017-12-08T14:14:03Z,42.805,6.029,13.2939,4.59957,2472.069,2017-12-08T16:15:32Z
2017-12-08T14:17:06Z,42.805,6.029,13.2939,4.59956,2472.077,2017-12-08T16:18:35Z
2017-12-08T14:20:09Z,42.805,6.029,13.2932,4.59955,2472.055,2017-12-08T16:21:38Z
2017-12-08T14:23:12Z,42.805,6.029,13.2933,4.59955,2472.069,2017-12-08T16:24:41Z
2017-12-08T14:26:15Z,42.805,6.029,13.2934,4.59956,2472.069,2017-12-08T16:27:44Z
2017-12-08T14:29:18Z,42.805,6.029,13.2939,4.59955,2472.092,2017-12-08T16:30:47Z
2017-12-08T14:32:20Z,42.805,6.029,13.2937,4.59958,2472.069,2017-12-08T16:33:50Z
2017-12-08T14:35:23Z,42.805,6.029,13.2936,4.59958,2472.069,2017-12-08T16:36:53Z
2017-12-08T14:38:26Z,42.805,6.029,13.2935,4.59955,2472.047,2017-12-08T16:39:56Z
2017-12-08T14:41:29Z,42.805,6.029,13.2936,4.59957,2472.055,2017-12-08T16:42:59Z
2017-12-08T14:44:32Z,42.805,6.029,13.2935,4.59955,2472.092,2017-12-08T16:46:01Z
2017-12-08T14:47:35Z,42.805,6.029,13.2934,4.59956,2472.047,2017-12-08T16:49:04Z
2017-12-08T14:50:38Z,42.805,6.029,13.2939,4.59955,2472.032,2017-12-08T16:52:07Z
2017-12-08T14:53:41Z,42.805,6.029,13.2935,4.59956,2472.047,2017-12-08T16:55:10Z
2017-12-08T14:56:44Z,42.805,6.029,13.2936,4.59955,2472.047,2017-12-08T16:58:13Z